Location: Bégole
(43.1574°N, 0.3291°E)
Time: 01:46:09
(UTC+00:00)

deb Delta 89 - Pass Details

Date: 23 February 2024
Orbit: 714 x 2021 km, 97.5° (Epoch: 13 April)

Event Time Altitude Azimuth Distance (km) Brightness Sun altitude
Rises 04:08:53 0° 8° (N) 5,423 ? -29.1°
Reaches altitude 10° 04:12:24 10° 1° (N) 4,468 ? -28.5°
Maximum altitude 04:22:17 38° 301° (WNW) 2,785 ? -26.8°
Enters shadow 04:23:42 36° 286° (WNW) 2,808 ? -26.5°
